EW7541 Weather Reports


Display with metric or nautical units.
time (UTC)temp
F
wind
direction
speed
MPH
gust
MPH
rain 1hr
in
rain 24hr
in
rain mn
in
humidity
%
barometer
mb
20260906111522 74 0.0 0.0 0.00 0.01 0.00 79 1009.0
20260906110523 73 0.0 1.0 0.00 0.01 0.00 80 1008.9
20260906105520 73 0.0 1.0 0.00 0.01 0.00 80 1009.0
20260906104520 73 0.0 0.0 0.00 0.01 0.00 80 1008.9
20260906103525 73 0.0 0.0 0.00 0.01 0.00 79 1008.8
20260906102540 73 0.0 2.0 0.00 0.01 0.00 78 1008.8
20260906101526 73 0.0 0.0 0.00 0.01 0.00 79 1008.6
20260906100523 73 0.0 0.0 0.00 0.01 0.00 78 1008.6
20260906095548 73 0.0 1.0 0.00 0.01 0.00 78 1008.6
20260906094520 73 0.0 1.0 0.00 0.01 0.00 78 1008.7
20260906093520 73 0.0 1.0 0.00 0.01 0.00 79 1008.8
20260906092520 74 0.0 1.0 0.00 0.01 0.00 78 1009.0
20260906091519 74 0.0 2.0 0.00 0.01 0.00 77 1009.5
20260906090523 74 0.0 0.0 0.00 0.01 0.00 76 1009.5
20260906085540 74 0.0 0.0 0.00 0.01 0.00 75 1009.5
20260906084540 75 0.0 0.0 0.00 0.01 0.00 75 1009.6
20260906083520 75 0.0 0.0 0.00 0.01 0.00 75 1009.6
20260906082520 74 0.0 0.0 0.00 0.01 0.00 75 1009.6
20260906081520 75 0.0 0.0 0.00 0.01 0.00 75 1009.8
20260906080523 75 0.0 1.0 0.00 0.01 0.00 74 1009.7
20260906075600 75 0.0 2.0 0.00 0.01 0.00 75 1009.7
20260906074519 75 0.0 1.0 0.00 0.01 0.00 75 1009.8
20260906073543 75 0 1.0 1.0 0.00 0.01 0.00 75 1009.8
20260906072656 75 0.0 1.0 0.00 0.01 0.00 74 1009.8
20260906072020 75 0.0 0.0 0.00 0.01 0.00 73 1009.8
20260906071020 75 0 1.0 1.0 0.00 0.01 0.00 73 1010.0
20260906070019 76 0.0 0.0 0.00 0.01 0.00 73 1010.0
20260906065103 76 0.0 1.0 0.00 0.01 0.00 73 1010.1
20260906064020 76 0.0 0.0 0.00 0.01 0.00 73 1010.0
20260906063020 76 0.0 0.0 0.00 0.01 0.00 73 1010.0
20260906062039 75 0.0 0.0 0.00 0.01 0.00 74 1009.7
20260906061023 75 0.0 0.0 0.00 0.01 0.00 74 1010.1
20260906060019 75 0.0 0.0 0.00 0.01 0.00 75 1010.2
20260906055020 75 0.0 0.0 0.00 0.01 0.00 74 1010.3
20260906054019 76 0.0 0.0 0.00 0.01 0.00 73 1010.6
20260906053040 76 0.0 0.0 0.00 0.01 0.00 73 1010.8
20260906052023 76 0.0 1.0 0.00 0.01 0.00 73 1010.9
20260906051023 76 0.0 1.0 0.00 0.01 0.00 73 1010.7
20260906050019 75 0 1.0 1.0 0.00 0.01 0.00 73 1010.7
20260906045020 75 0.0 0.0 0.00 0.01 0.00 73 1010.8
20260906044102 75 0.0 1.0 0.00 0.01 0.00 73 1010.9
20260906043023 75 0.0 1.0 0.00 0.01 0.00 74 1010.8
20260906042026 74 0.0 0.0 0.00 0.01 0.00 76 1010.7
20260906041032 74 0.0 0.0 0.00 0.01 0.00 77 1010.8
20260906040024 73 0.0 0.0 0.00 0.01 0.01 80 1010.6
20260906035039 73 0.0 1.0 0.00 0.01 0.01 83 1010.7
20260906034019 73 0.0 0.0 0.00 0.01 0.01 82 1010.8
20260906033022 75 0.0 2.0 0.00 0.01 0.01 79 1010.9
20260906032019 75 0.0 0.0 0.00 0.01 0.01 74 1010.5
20260906031039 75 0.0 0.0 0.00 0.01 0.01 75 1010.6
20260906030019 74 0.0 0.0 0.00 0.01 0.01 80 1010.6
20260906025022 73 0 1.0 3.0 0.00 0.01 0.01 85 1010.7
20260906024019 75 113 1.0 4.0 0.00 0.01 0.01 80 1011.2
20260906023019 75 0.0 0.0 0.00 0.01 0.01 78 1011.1
20260906022019 76 0.0 0.0 0.00 0.01 0.01 76 1010.9
20260906021019 76 0.0 0.0 0.00 0.01 0.01 76 1010.8
20260906020020 77 0.0 0.0 0.00 0.01 0.01 75 1010.7
20260906015019 77 0.0 0.0 0.00 0.01 0.01 71 1010.2
20260906014040 77 0.0 0.0 0.00 0.01 0.01 73 1010.0
20260906013019 77 0.0 0.0 0.00 0.01 0.01 74 1009.8
20260906012019 76 0.0 0.0 0.00 0.01 0.01 75 1009.3
20260906011019 76 0.0 0.0 0.00 0.01 0.01 77 1009.1
20260906010039 76 0.0 0.0 0.00 0.01 0.01 77 1008.6
20260906005020 76 0.0 0.0 0.00 0.01 0.01 78 1008.6
20260906004019 76 0.0 0.0 0.00 0.01 0.01 78 1008.4
20260906003019 77 0.0 0.0 0.00 0.01 0.01 75 1008.2
20260906002019 77 0.0 0.0 0.00 0.01 0.01 76 1008.1
20260906001020 76 0.0 1.0 0.00 0.01 0.01 81 1007.9
20260906000019 76 0.0 0.0 0.00 0.01 0.01 81 1008.0
20260905235021 76 0.0 1.0 0.00 0.01 0.01 82 1008.1
20260905234019 76 0.0 0.0 0.00 0.01 0.01 81 1008.2
20260905233044 77 0.0 1.0 0.00 0.01 0.01 80 1008.8
20260905232019 77 0.0 0.0 0.00 0.01 0.01 80 1008.6
20260905231039 78 0.0 0.0 0.00 0.01 0.01 77 1009.0
20260905230039 78 0.0 0.0 0.00 0.01 0.01 79 1008.8
20260905225019 78 0.0 0.0 0.00 0.01 0.01 79 1008.8
20260905224022 79 0.0 0.0 0.00 0.01 0.01 77 1009.1
20260905223019 79 0.0 0.0 0.00 0.01 0.01 77 1009.0
20260905222023 78 0.0 0.0 0.00 0.01 0.01 76 1009.1
20260905221059 78 0.0 1.0 0.01 0.01 0.01 73 1008.8
20260905220042 77 0.0 0.0 0.01 0.01 0.01 76 1008.4
20260905215019 76 0.0 1.0 0.01 0.01 0.01 78 1008.1
20260905214019 76 0.0 0.0 0.01 0.01 0.01 78 1008.1
20260905213019 77 0.0 0.0 0.01 0.01 0.01 81 1008.2
20260905212022 77 0.0 2.0 0.01 0.01 0.01 80 1008.4
20260905211102 80 23 1.0 2.0 0.00 0.00 0.00 76 1009.0
20260905210019 83 45 1.0 7.0 0.00 0.00 0.00 68 1009.4
20260905205019 87 0.0 3.0 0.00 0.00 0.00 63 1009.6
20260905204019 87 0.0 1.0 0.00 0.00 0.00 61 1009.5
20260905203019 88 0.0 2.0 0.00 0.00 0.00 61 1009.6
20260905202019 88 0.0 1.0 0.00 0.00 0.00 56 1009.7
20260905201019 89 0.0 0.0 0.00 0.00 0.00 57 1009.9
20260905200019 89 0.0 2.0 0.00 0.00 0.00 55 1010.0
20260905195018 89 0.0 1.0 0.00 0.00 0.00 52 1009.9
20260905194019 90 0.0 2.0 0.00 0.00 0.00 53 1010.0
20260905193027 91 0.0 1.0 0.00 0.00 0.00 52 1010.4
20260905192019 92 0.0 0.0 0.00 0.00 0.00 51 1010.6
20260905191019 91 0.0 1.0 0.00 0.00 0.00 51 1010.8
20260905190018 92 0.0 1.0 0.00 0.00 0.00 50 1010.8
20260905185021 92 0.0 1.0 0.00 0.00 0.00 51 1010.8
20260905184019 91 0.0 1.0 0.00 0.00 0.00 51 1010.8
20260905183038 92 0.0 0.0 0.00 0.00 0.00 53 1010.9
20260905182019 92 0.0 0.0 0.00 0.00 0.00 50 1011.2
20260905181019 91 0.0 0.0 0.00 0.00 0.00 57 1011.4
20260905180018 91 0.0 1.0 0.00 0.00 0.00 55 1011.5
20260905175018 90 0.0 1.0 0.00 0.00 0.00 58 1011.5
20260905174018 90 0.0 1.0 0.00 0.00 0.00 57 1011.7
20260905173021 91 0.0 1.0 0.00 0.00 0.00 58 1012.0
20260905172019 90 0.0 1.0 0.00 0.00 0.00 59 1011.9
20260905171042 90 0.0 0.0 0.00 0.00 0.00 59 1012.0
20260905170018 90 0.0 1.0 0.00 0.00 0.00 59 1012.0
20260905165040 90 0.0 0.0 0.00 0.00 0.00 61 1012.1
20260905164022 90 0.0 1.0 0.00 0.00 0.00 60 1012.3
20260905163021 89 0.0 1.0 0.00 0.00 0.00 64 1012.4
20260905162020 89 0.0 1.0 0.00 0.00 0.00 62 1012.5
20260905161020 89 0.0 0.0 0.00 0.00 0.00 64 1012.6
20260905160022 87 0.0 0.0 0.00 0.00 0.00 67 1012.6
20260905155029 87 0.0 1.0 0.00 0.00 0.00 67 1012.7
20260905154019 86 0.0 0.0 0.00 0.00 0.00 68 1012.6
20260905153021 87 0.0 1.0 0.00 0.00 0.00 66 1012.7
20260905152110 87 0.0 0.0 0.00 0.00 0.00 66 1012.7
20260905151040 87 0.0 1.0 0.00 0.00 0.00 64 1012.7
20260905150018 86 0.0 0.0 0.00 0.00 0.00 67 1012.8
20260905145020 86 0.0 0.0 0.00 0.00 0.00 67 1012.8
20260905144022 87 0.0 0.0 0.00 0.00 0.00 65 1012.8
20260905143020 87 0.0 0.0 0.00 0.00 0.00 67 1012.9
20260905142041 85 0.0 0.0 0.00 0.00 0.00 68 1012.6
20260905141025 85 0.0 1.0 0.00 0.00 0.00 70 1012.7
20260905140020 84 0.0 1.0 0.00 0.00 0.00 69 1012.9
20260905135029 82 0.0 1.0 0.00 0.00 0.00 73 1012.7
20260905134020 82 0.0 0.0 0.00 0.00 0.00 74 1012.8
20260905133041 80 0.0 0.0 0.00 0.00 0.00 78 1012.7
20260905132020 78 0.0 0.0 0.00 0.00 0.00 80 1012.6
20260905131020 77 0.0 0.0 0.00 0.00 0.00 83 1012.6
20260905130020 76 0.0 0.0 0.00 0.00 0.00 84 1012.4
20260905125020 76 0.0 0.0 0.00 0.00 0.00 84 1012.3
20260905124020 75 0.0 0.0 0.00 0.00 0.00 84 1012.3
20260905123020 75 0.0 0.0 0.00 0.00 0.00 83 1012.3
20260905122019 75 0.0 0.0 0.00 0.00 0.00 83 1012.2
20260905121021 75 0.0 0.0 0.00 0.00 0.00 82 1012.1
20260905120020 75 0.0 0.0 0.00 0.00 0.00 81 1012.1
20260905115020 75 0.0 0.0 0.00 0.00 0.00 81 1011.9
20260905114020 75 0.0 0.0 0.00 0.00 0.00 81 1012.0
20260905113020 75 0.0 0.0 0.00 0.00 0.00 81 1011.8
20260905112020 75 0.0 0.0 0.00 0.00 0.00 81 1011.7